| time (UTC) | temp F | wind direction | speed MPH | gust MPH | rain 1hr in | rain 24hr in | rain mn in | humidity % | barometer mb |
| 20260505212837 | 69 | 41 | 3.0 | 5.0 | 0.00 | 0.00 | 0.00 | 71 | 1016.1 |
| 20260505212334 | 69 | 340 | 3.0 | 6.0 | 0.00 | 0.00 | 0.00 | 70 | 1016.4 |
| 20260505211830 | 70 | 13 | 0.0 | 0.0 | 0.00 | 0.00 | 0.00 | 77 | 1016.3 |
| 20260505211328 | 69 | 13 | 0.0 | 0.0 | 0.00 | 0.00 | 0.00 | 72 | 1016.1 |
| 20260505210824 | 70 | 353 | 4.0 | 7.0 | 0.00 | 0.00 | 0.00 | 69 | 1016.3 |
| 20260505210321 | 69 | 311 | 0.0 | 0.0 | 0.00 | 0.00 | 0.00 | 70 | 1016.4 |
| 20260505205818 | 71 | 332 | 0.0 | 0.0 | 0.00 | 0.00 | 0.00 | 68 | 1016.5 |
| 20260505205316 | 71 | 287 | 0.0 | 0.0 | 0.00 | 0.00 | 0.00 | 70 | 1016.1 |
| 20260505204812 | 70 | 311 | 0.0 | 0.0 | 0.00 | 0.00 | 0.00 | 72 | 1016.3 |
| 20260505204311 | 70 | 324 | 0.0 | 0.0 | 0.00 | 0.00 | 0.00 | 72 | 1016.5 |
| 20260505203808 | 71 | 102 | 0.0 | 0.0 | 0.00 | 0.00 | 0.00 | 71 | 1016.4 |
| 20260505203304 | 71 | 45 | 0.0 | 0.0 | 0.00 | 0.00 | 0.00 | 74 | 1016.4 |
| 20260505202800 | 70 | 109 | 0.0 | 0.0 | 0.00 | 0.00 | 0.00 | 72 | 1016.3 |
| 20260505202257 | 70 | 297 | 0.0 | 0.0 | 0.00 | 0.00 | 0.00 | 70 | 1016.5 |
| 20260505201753 | 70 | 114 | 0.0 | 0.0 | 0.00 | 0.00 | 0.00 | 72 | 1016.5 |
| 20260505201251 | 70 | 336 | 0.0 | 0.0 | 0.00 | 0.00 | 0.00 | 74 | 1016.5 |
| 20260505200749 | 70 | 333 | 0.0 | 0.0 | 0.00 | 0.00 | 0.00 | 72 | 1016.5 |
| 20260505200246 | 69 | 315 | 0.0 | 0.0 | 0.00 | 0.00 | 0.00 | 75 | 1016.4 |
| 20260505195741 | 69 | 337 | 0.0 | 0.0 | 0.00 | 0.00 | 0.00 | 72 | 1016.5 |
| 20260505195239 | 69 | 311 | 1.0 | 3.0 | 0.00 | 0.00 | 0.00 | 71 | 1016.6 |
| 20260505194736 | 70 | 311 | 1.0 | 3.0 | 0.00 | 0.00 | 0.00 | 69 | 1016.2 |
| 20260505194232 | 70 | 288 | 0.0 | 0.0 | 0.00 | 0.00 | 0.00 | 72 | 1016.6 |
| 20260505193722 | 68 | 324 | 0.0 | 0.0 | 0.00 | 0.00 | 0.00 | 73 | 1016.5 |
| 20260505193220 | 69 | 172 | 0.0 | 0.0 | 0.00 | 0.00 | 0.00 | 74 | 1016.6 |
| 20260505192718 | 69 | 309 | 0.0 | 0.0 | 0.00 | 0.00 | 0.00 | 69 | 1016.6 |
| 20260505192215 | 69 | 34 | 0.0 | 0.0 | 0.00 | 0.00 | 0.00 | 72 | 1016.5 |
| 20260505191714 | 70 | 348 | 0.0 | 0.0 | 0.00 | 0.00 | 0.00 | 71 | 1016.6 |
| 20260505191212 | 70 | 147 | 0.0 | 0.0 | 0.00 | 0.00 | 0.00 | 74 | 1016.6 |
| 20260505190708 | 70 | 157 | 0.0 | 0.0 | 0.00 | 0.00 | 0.00 | 70 | 1016.5 |
| 20260505190207 | 69 | 321 | 0.0 | 0.0 | 0.00 | 0.00 | 0.00 | 71 | 1016.6 |
| 20260505185704 | 69 | 302 | 0.0 | 0.0 | 0.00 | 0.00 | 0.00 | 71 | 1016.5 |
| 20260505185201 | 70 | 141 | 0.0 | 0.0 | 0.00 | 0.00 | 0.00 | 70 | 1016.6 |
| 20260505184657 | 70 | 304 | 0.0 | 0.0 | 0.00 | 0.00 | 0.00 | 71 | 1016.7 |
| 20260505184154 | 69 | 29 | 0.0 | 1.0 | 0.00 | 0.00 | 0.00 | 70 | 1016.7 |
| 20260505183651 | 70 | 66 | 0.0 | 0.0 | 0.00 | 0.00 | 0.00 | 68 | 1016.8 |
| 20260505183149 | 69 | 130 | 0.0 | 0.0 | 0.00 | 0.00 | 0.00 | 75 | 1016.7 |
| 20260505182645 | 70 | 329 | 0.0 | 0.0 | 0.00 | 0.00 | 0.00 | 69 | 1016.5 |
| 20260505182142 | 69 | 358 | 0.0 | 0.0 | 0.00 | 0.00 | 0.00 | 71 | 1016.5 |
| 20260505181638 | 67 | 278 | 0.0 | 0.0 | 0.00 | 0.00 | 0.00 | 75 | 1016.8 |
| 20260505181136 | 68 | 327 | 0.0 | 0.0 | 0.00 | 0.00 | 0.00 | 71 | 1016.7 |
| 20260505180632 | 68 | 119 | 0.0 | 0.0 | 0.00 | 0.00 | 0.00 | 74 | 1016.6 |
| 20260505180129 | 67 | 339 | 0.0 | 0.0 | 0.00 | 0.00 | 0.00 | 69 | 1016.7 |
| 20260505175625 | 68 | 319 | 0.0 | 0.0 | 0.00 | 0.00 | 0.00 | 68 | 1016.7 |
| 20260505175122 | 69 | 345 | 1.0 | 2.0 | 0.00 | 0.00 | 0.00 | 68 | 1016.9 |
| 20260505174618 | 68 | 329 | 0.0 | 0.0 | 0.00 | 0.00 | 0.00 | 71 | 1016.7 |
| 20260505174114 | 67 | 332 | 0.0 | 0.0 | 0.00 | 0.00 | 0.00 | 69 | 1016.7 |
| 20260505173611 | 68 | 283 | 0.0 | 0.0 | 0.00 | 0.00 | 0.00 | 71 | 1016.9 |
| 20260505173108 | 68 | 310 | 0.0 | 0.0 | 0.00 | 0.00 | 0.00 | 72 | 1016.9 |
| 20260505172606 | 67 | 338 | 0.0 | 0.0 | 0.00 | 0.00 | 0.00 | 71 | 1016.7 |
| 20260505172102 | 67 | 326 | 0.0 | 0.0 | 0.00 | 0.00 | 0.00 | 71 | 1017.0 |
| 20260505171557 | 65 | 317 | 0.0 | 0.0 | 0.00 | 0.00 | 0.00 | 74 | 1016.8 |
| 20260505171054 | 64 | 338 | 0.0 | 0.0 | 0.00 | 0.00 | 0.00 | 75 | 1016.8 |
| 20260505170551 | 65 | 340 | 0.0 | 0.0 | 0.00 | 0.00 | 0.00 | 72 | 1016.9 |
| 20260505170047 | 64 | 332 | 0.0 | 0.0 | 0.00 | 0.00 | 0.00 | 73 | 1016.9 |
| 20260505165543 | 64 | 321 | 0.0 | 0.0 | 0.00 | 0.00 | 0.00 | 74 | 1016.9 |
| 20260505165039 | 64 | 80 | 0.0 | 0.0 | 0.00 | 0.00 | 0.00 | 74 | 1016.9 |
| 20260505164535 | 64 | 341 | 0.0 | 0.0 | 0.00 | 0.00 | 0.00 | 76 | 1016.9 |
| 20260505164032 | 64 | 342 | 0.0 | 0.0 | 0.00 | 0.00 | 0.00 | 73 | 1017.1 |
| 20260505163531 | 64 | 141 | 0.0 | 0.0 | 0.00 | 0.00 | 0.00 | 75 | 1017.1 |
| 20260505163027 | 63 | 53 | 0.0 | 0.0 | 0.00 | 0.00 | 0.00 | 77 | 1017.0 |
| 20260505162521 | 63 | 182 | 0.0 | 1.0 | 0.00 | 0.00 | 0.00 | 78 | 1016.9 |
| 20260505162018 | 62 | 320 | 0.0 | 0.0 | 0.00 | 0.00 | 0.00 | 76 | 1017.0 |
| 20260505161514 | 63 | 169 | 0.0 | 0.0 | 0.00 | 0.00 | 0.00 | 77 | 1017.0 |
| 20260505161012 | 62 | 300 | 0.0 | 0.0 | 0.00 | 0.00 | 0.00 | 77 | 1017.1 |
| 20260505160510 | 62 | 160 | 0.0 | 0.0 | 0.00 | 0.00 | 0.00 | 79 | 1016.8 |
| 20260505152946 | 60 | 107 | 0.0 | 0.0 | 0.00 | 0.00 | 0.00 | 83 | 1016.9 |
| 20260505152443 | 59 | 135 | 0.0 | 0.0 | 0.00 | 0.00 | 0.00 | 83 | 1017.0 |
| 20260505151943 | 59 | 154 | 0.0 | 0.0 | 0.00 | 0.00 | 0.00 | 82 | 1017.0 |
| 20260505151439 | 59 | 333 | 0.0 | 0.0 | 0.00 | 0.00 | 0.00 | 83 | 1017.1 |
| 20260505150937 | 58 | 143 | 0.0 | 1.0 | 0.00 | 0.00 | 0.00 | 84 | 1017.0 |
| 20260505150434 | 58 | 207 | 0.0 | 0.0 | 0.00 | 0.00 | 0.00 | 83 | 1016.9 |
| 20260505140404 | 55 | 34 | 0.0 | 0.0 | 0.00 | 0.00 | 0.00 | 88 | 1016.3 |
| 20260505124817 | 55 | 6 | 0.0 | 0.0 | 0.00 | 0.00 | 0.00 | 85 | 1015.4 |
| 20260505124314 | 55 | 6 | 0.0 | 0.0 | 0.00 | 0.00 | 0.00 | 86 | 1015.5 |
| 20260505123810 | 55 | 184 | 0.0 | 0.0 | 0.00 | 0.00 | 0.00 | 86 | 1015.5 |
| 20260505123307 | 55 | 220 | 0.0 | 0.0 | 0.00 | 0.00 | 0.00 | 85 | 1015.5 |
| 20260505122803 | 56 | 235 | 0.0 | 0.0 | 0.00 | 0.00 | 0.00 | 84 | 1015.4 |
| 20260505122301 | 55 | 133 | 0.0 | 0.0 | 0.00 | 0.00 | 0.00 | 84 | 1015.1 |
| 20260505121757 | 56 | 349 | 0.0 | 0.0 | 0.00 | 0.00 | 0.00 | 84 | 1015.0 |
| 20260505121254 | 56 | 159 | 0.0 | 0.0 | 0.00 | 0.00 | 0.00 | 83 | 1015.0 |
| 20260505120750 | 56 | 236 | 0.0 | 0.0 | 0.00 | 0.00 | 0.00 | 83 | 1015.0 |
| 20260505120246 | 56 | 346 | 0.0 | 0.0 | 0.00 | 0.00 | 0.00 | 83 | 1014.9 |
| 20260505115745 | 56 | 234 | 0.0 | 0.0 | 0.00 | 0.00 | 0.00 | 83 | 1014.7 |
| 20260505115243 | 56 | 154 | 0.0 | 0.0 | 0.00 | 0.00 | 0.00 | 82 | 1014.8 |
| 20260505114740 | 56 | 38 | 1.0 | 5.0 | 0.00 | 0.00 | 0.00 | 82 | 1014.9 |
| 20260505114236 | 57 | 119 | 1.0 | 5.0 | 0.00 | 0.00 | 0.00 | 81 | 1014.5 |
| 20260505113733 | 57 | 108 | 0.0 | 0.0 | 0.00 | 0.00 | 0.00 | 81 | 1014.6 |
| 20260505113229 | 57 | 138 | 4.0 | 6.0 | 0.00 | 0.00 | 0.00 | 80 | 1014.6 |
| 20260505112725 | 57 | 175 | 0.0 | 0.0 | 0.00 | 0.00 | 0.00 | 78 | 1014.5 |
| 20260505112223 | 57 | 11 | 0.0 | 0.0 | 0.00 | 0.00 | 0.00 | 77 | 1014.7 |
| 20260505111723 | 58 | 302 | 0.0 | 0.0 | 0.00 | 0.00 | 0.00 | 76 | 1014.5 |
| 20260505111219 | 57 | 6 | 0.0 | 0.0 | 0.00 | 0.00 | 0.00 | 76 | 1014.6 |
| 20260505110715 | 58 | 9 | 0.0 | 0.0 | 0.00 | 0.00 | 0.00 | 75 | 1014.4 |
| 20260505110213 | 58 | 153 | 0.0 | 0.0 | 0.00 | 0.00 | 0.00 | 75 | 1014.4 |
| 20260505102148 | 53 | 259 | 0.0 | 0.0 | 0.00 | 0.00 | 0.00 | 87 | 1013.8 |
| 20260505101647 | 53 | 305 | 0.0 | 0.0 | 0.00 | 0.00 | 0.00 | 87 | 1013.7 |
| 20260505101143 | 53 | 284 | 0.0 | 0.0 | 0.00 | 0.00 | 0.00 | 87 | 1013.9 |
| 20260505100639 | 54 | 322 | 0.0 | 0.0 | 0.00 | 0.00 | 0.00 | 85 | 1013.8 |
| 20260505100136 | 54 | 292 | 0.0 | 0.0 | 0.00 | 0.00 | 0.00 | 84 | 1014.0 |
| 20260505095632 | 55 | 207 | 0.0 | 0.0 | 0.00 | 0.00 | 0.00 | 82 | 1013.9 |
| 20260505095130 | 55 | 261 | 0.0 | 0.0 | 0.00 | 0.00 | 0.00 | 80 | 1013.7 |
| 20260505094626 | 55 | 307 | 0.0 | 0.0 | 0.00 | 0.00 | 0.00 | 78 | 1013.5 |
| 20260505094122 | 56 | 314 | 0.0 | 0.0 | 0.00 | 0.00 | 0.00 | 75 | 1013.6 |
| 20260505093618 | 57 | 344 | 0.0 | 0.0 | 0.00 | 0.00 | 0.00 | 75 | 1013.7 |
| 20260505093115 | 59 | 321 | 0.0 | 0.0 | 0.00 | 0.00 | 0.00 | 66 | 1013.4 |
| 20260505092613 | 61 | 338 | 0.0 | 0.0 | 0.00 | 0.00 | 0.00 | 63 | 1013.5 |
| 20260505092112 | 61 | 313 | 0.0 | 0.0 | 0.00 | 0.00 | 0.00 | 60 | 1013.5 |
| 20260505091608 | 61 | 334 | 0.0 | 0.0 | 0.00 | 0.00 | 0.00 | 60 | 1013.3 |
| 20260505091106 | 62 | 195 | 0.0 | 0.0 | 0.00 | 0.00 | 0.00 | 60 | 1013.6 |
| 20260505090604 | 62 | 218 | 0.0 | 0.0 | 0.00 | 0.00 | 0.00 | 60 | 1013.6 |
| 20260505085559 | 62 | 289 | 0.0 | 0.0 | 0.00 | 0.00 | 0.00 | 59 | 1013.3 |
| 20260505085057 | 62 | 316 | 0.0 | 0.0 | 0.00 | 0.00 | 0.00 | 59 | 1013.3 |
| 20260505084555 | 62 | 325 | 0.0 | 0.0 | 0.00 | 0.00 | 0.00 | 59 | 1013.4 |
| 20260505084053 | 62 | 42 | 3.0 | 5.0 | 0.00 | 0.00 | 0.00 | 60 | 1013.4 |
| 20260505083549 | 62 | 114 | 1.0 | 5.0 | 0.00 | 0.00 | 0.00 | 61 | 1013.3 |
| 20260505083046 | 61 | 316 | 0.0 | 2.0 | 0.00 | 0.00 | 0.00 | 61 | 1013.3 |
| 20260505082542 | 62 | 186 | 1.0 | 3.0 | 0.00 | 0.00 | 0.00 | 62 | 1013.1 |
| 20260505082039 | 62 | 280 | 5.0 | 8.0 | 0.00 | 0.00 | 0.00 | 62 | 1013.1 |
| 20260505081535 | 62 | 122 | 0.0 | 3.0 | 0.00 | 0.00 | 0.00 | 63 | 1013.1 |
| 20260505081032 | 62 | 77 | 1.0 | 3.0 | 0.00 | 0.00 | 0.00 | 62 | 1012.8 |
| 20260505080529 | 62 | 259 | 0.0 | 0.0 | 0.00 | 0.00 | 0.00 | 62 | 1013.0 |
| 20260505080026 | 62 | 129 | 5.0 | 9.0 | 0.00 | 0.00 | 0.00 | 62 | 1012.8 |
| 20260505075521 | 62 | 92 | 4.0 | 7.0 | 0.00 | 0.00 | 0.00 | 63 | 1012.7 |
| 20260505075018 | 62 | 24 | 1.0 | 6.0 | 0.00 | 0.00 | 0.00 | 63 | 1012.9 |
| 20260505074516 | 62 | 24 | 11.0 | 16.0 | 0.00 | 0.00 | 0.00 | 63 | 1012.9 |
| 20260505074013 | 62 | 3 | 0.0 | 0.0 | 0.00 | 0.00 | 0.00 | 66 | 1012.8 |
| 20260505073510 | 62 | 150 | 5.0 | 8.0 | 0.00 | 0.00 | 0.00 | 66 | 1012.6 |
| 20260505073008 | 62 | 153 | 3.0 | 6.0 | 0.00 | 0.00 | 0.00 | 66 | 1012.4 |
| 20260505072504 | 62 | 157 | 1.0 | 5.0 | 0.00 | 0.00 | 0.00 | 66 | 1012.6 |
| 20260505071959 | 62 | 310 | 1.0 | 2.0 | 0.00 | 0.00 | 0.00 | 65 | 1012.4 |
| 20260505071455 | 62 | 181 | 2.0 | 5.0 | 0.00 | 0.00 | 0.00 | 65 | 1012.3 |
| 20260505070954 | 63 | 132 | 0.0 | 0.0 | 0.00 | 0.00 | 0.00 | 64 | 1012.3 |
| 20260505070450 | 63 | 99 | 3.0 | 5.0 | 0.00 | 0.00 | 0.00 | 63 | 1012.4 |
| 20260505065946 | 63 | 130 | 1.0 | 6.0 | 0.00 | 0.00 | 0.00 | 64 | 1012.3 |
| 20260505065443 | 64 | 350 | 3.0 | 7.0 | 0.00 | 0.00 | 0.00 | 62 | 1012.4 |
| 20260505064939 | 63 | 93 | 2.0 | 2.0 | 0.00 | 0.00 | 0.00 | 63 | 1012.2 |
| 20260505064436 | 63 | 19 | 1.0 | 3.0 | 0.00 | 0.00 | 0.00 | 64 | 1011.9 |
| 20260505063935 | 63 | 194 | 0.0 | 0.0 | 0.00 | 0.00 | 0.00 | 64 | 1011.9 |
| 20260505063431 | 63 | 204 | 3.0 | 3.0 | 0.00 | 0.00 | 0.00 | 66 | 1011.9 |
| 20260505062927 | 63 | 193 | 2.0 | 2.0 | 0.00 | 0.00 | 0.00 | 66 | 1011.9 |
| 20260505062425 | 63 | 43 | 0.0 | 1.0 | 0.00 | 0.00 | 0.00 | 65 | 1012.2 |
| 20260505061921 | 63 | 226 | 1.0 | 2.0 | 0.00 | 0.00 | 0.00 | 66 | 1012.0 |
| 20260505061420 | 63 | 180 | 5.0 | 6.0 | 0.00 | 0.00 | 0.00 | 66 | 1011.8 |
| 20260505060917 | 64 | 175 | 3.0 | 6.0 | 0.00 | 0.00 | 0.00 | 67 | 1011.8 |
| 20260505060414 | 64 | 197 | 4.0 | 6.0 | 0.00 | 0.00 | 0.00 | 67 | 1011.8 |
| 20260505055910 | 64 | 211 | 1.0 | 1.0 | 0.00 | 0.00 | 0.00 | 66 | 1011.8 |
| 20260505055406 | 64 | 155 | 5.0 | 7.0 | 0.00 | 0.00 | 0.00 | 67 | 1011.6 |
| 20260505054903 | 64 | 42 | 0.0 | 0.0 | 0.00 | 0.00 | 0.00 | 68 | 1011.5 |
| 20260505054400 | 65 | 119 | 0.0 | 0.0 | 0.00 | 0.00 | 0.00 | 66 | 1011.6 |
| 20260505053858 | 65 | 254 | 0.0 | 0.0 | 0.00 | 0.00 | 0.00 | 66 | 1011.5 |
| 20260505053355 | 65 | 110 | 0.0 | 0.0 | 0.00 | 0.00 | 0.00 | 66 | 1011.6 |
| 20260505052852 | 65 | 61 | 2.0 | 6.0 | 0.00 | 0.00 | 0.00 | 65 | 1011.5 |
| 20260505052349 | 64 | 334 | 0.0 | 0.0 | 0.00 | 0.00 | 0.00 | 69 | 1011.4 |
| 20260505051846 | 63 | 333 | 0.0 | 0.0 | 0.00 | 0.00 | 0.00 | 70 | 1011.3 |
| 20260505051343 | 64 | 330 | 0.0 | 0.0 | 0.00 | 0.00 | 0.00 | 70 | 1011.4 |
| 20260505050841 | 63 | 358 | 0.0 | 0.0 | 0.00 | 0.00 | 0.00 | 70 | 1011.3 |
| 20260505050340 | 60 | 296 | 0.0 | 0.0 | 0.00 | 0.00 | 0.00 | 78 | 1011.4 |
| 20260505041307 | 65 | 296 | 0.0 | 0.0 | 0.00 | 0.00 | 0.00 | 62 | 1010.7 |
| 20260505040804 | 65 | 334 | 0.0 | 0.0 | 0.00 | 0.00 | 0.00 | 73 | 1010.6 |
| 20260505040301 | 64 | 3 | 0.0 | 0.0 | 0.00 | 0.00 | 0.00 | 73 | 1010.5 |
| 20260505035758 | 64 | 0 | 0.0 | 0.0 | 0.00 | 0.00 | 0.00 | 72 | 1010.4 |
| 20260505035254 | 62 | 347 | 0.0 | 0.0 | 0.00 | 0.00 | 0.00 | 77 | 1010.4 |
| 20260505034751 | 62 | 307 | 0.0 | 0.0 | 0.00 | 0.00 | 0.00 | 81 | 1010.5 |
| 20260505034248 | 63 | 337 | 0.0 | 0.0 | 0.00 | 0.00 | 0.00 | 83 | 1010.5 |
| 20260505033744 | 63 | 338 | 0.0 | 0.0 | 0.00 | 0.00 | 0.00 | 80 | 1010.2 |
| 20260505033242 | 64 | 285 | 0.0 | 0.0 | 0.00 | 0.00 | 0.00 | 78 | 1010.2 |
| 20260505032740 | 64 | 325 | 0.0 | 0.0 | 0.00 | 0.00 | 0.00 | 76 | 1010.1 |
| 20260505032235 | 64 | 347 | 0.0 | 0.0 | 0.00 | 0.00 | 0.00 | 77 | 1010.3 |
| 20260505031733 | 65 | 331 | 0.0 | 0.0 | 0.00 | 0.00 | 0.00 | 75 | 1010.2 |
| 20260505031229 | 66 | 332 | 0.0 | 0.0 | 0.00 | 0.00 | 0.00 | 75 | 1009.9 |
| 20260505030726 | 66 | 332 | 0.0 | 0.0 | 0.00 | 0.00 | 0.00 | 72 | 1010.1 |
| 20260505030222 | 67 | 332 | 0.0 | 0.0 | 0.00 | 0.00 | 0.00 | 72 | 1009.7 |
| 20260505025718 | 68 | 332 | 0.0 | 0.0 | 0.00 | 0.00 | 0.00 | 70 | 1009.9 |
| 20260505025217 | 68 | 332 | 0.0 | 0.0 | 0.00 | 0.00 | 0.00 | 69 | 1009.8 |
| 20260505024715 | 69 | 331 | 0.0 | 0.0 | 0.00 | 0.00 | 0.00 | 67 | 1009.8 |
| 20260505024211 | 69 | 331 | 0.0 | 0.0 | 0.00 | 0.00 | 0.00 | 66 | 1009.7 |
| 20260505023709 | 70 | 331 | 0.0 | 0.0 | 0.00 | 0.00 | 0.00 | 67 | 1009.8 |
| 20260505023206 | 70 | 334 | 0.0 | 0.0 | 0.00 | 0.00 | 0.00 | 61 | 1009.8 |
| 20260505022704 | 70 | 320 | 0.0 | 0.0 | 0.00 | 0.00 | 0.00 | 64 | 1009.8 |
| 20260505022200 | 70 | 332 | 0.0 | 0.0 | 0.00 | 0.00 | 0.00 | 63 | 1009.9 |
| 20260505021657 | 70 | 333 | 0.0 | 0.0 | 0.00 | 0.00 | 0.00 | 65 | 1009.9 |
| 20260505021154 | 71 | 318 | 0.0 | 0.0 | 0.00 | 0.00 | 0.00 | 65 | 1009.8 |
| 20260505020649 | 71 | 318 | 0.0 | 0.0 | 0.00 | 0.00 | 0.00 | 63 | 1009.7 |
| 20260505020145 | 71 | 319 | 0.0 | 0.0 | 0.00 | 0.00 | 0.00 | 62 | 1009.7 |
| 20260505015642 | 72 | 315 | 0.0 | 0.0 | 0.00 | 0.00 | 0.00 | 61 | 1009.7 |
| 20260505015139 | 72 | 315 | 0.0 | 0.0 | 0.00 | 0.00 | 0.00 | 60 | 1009.6 |
| 20260505014636 | 73 | 316 | 0.0 | 0.0 | 0.00 | 0.00 | 0.00 | 59 | 1009.7 |
| 20260505014133 | 73 | 316 | 0.0 | 0.0 | 0.00 | 0.00 | 0.00 | 58 | 1009.7 |
| 20260505013631 | 75 | 316 | 0.0 | 0.0 | 0.00 | 0.00 | 0.00 | 57 | 1009.6 |
| 20260505013128 | 77 | 312 | 0.0 | 0.0 | 0.00 | 0.00 | 0.00 | 54 | 1009.8 |
| 20260505012626 | 77 | 319 | 0.0 | 0.0 | 0.00 | 0.00 | 0.00 | 51 | 1009.7 |
| 20260505012122 | 78 | 304 | 0.0 | 0.0 | 0.00 | 0.00 | 0.00 | 50 | 1009.8 |
| 20260505011618 | 78 | 305 | 0.0 | 0.0 | 0.00 | 0.00 | 0.00 | 47 | 1009.7 |
| 20260505011115 | 79 | 301 | 0.0 | 0.0 | 0.00 | 0.00 | 0.00 | 42 | 1010.0 |
| 20260505010611 | 79 | 306 | 0.0 | 0.0 | 0.00 | 0.00 | 0.00 | 45 | 1009.8 |
| 20260505010108 | 79 | 309 | 0.0 | 0.0 | 0.00 | 0.00 | 0.00 | 52 | 1010.0 |
| 20260505005604 | 78 | 314 | 0.0 | 0.0 | 0.00 | 0.00 | 0.00 | 43 | 1010.0 |
| 20260505005101 | 78 | 320 | 0.0 | 0.0 | 0.00 | 0.00 | 0.00 | 45 | 1009.8 |
| 20260505004558 | 77 | 317 | 0.0 | 0.0 | 0.00 | 0.00 | 0.00 | 47 | 1009.9 |
| 20260505004055 | 78 | 314 | 0.0 | 0.0 | 0.00 | 0.00 | 0.00 | 53 | 1009.8 |
| 20260505003552 | 78 | 308 | 0.0 | 0.0 | 0.00 | 0.00 | 0.00 | 43 | 1009.9 |
| 20260505003050 | 79 | 323 | 0.0 | 0.0 | 0.00 | 0.00 | 0.00 | 46 | 1009.7 |
| 20260505002550 | 80 | 323 | 0.0 | 0.0 | 0.00 | 0.00 | 0.00 | 43 | 1010.1 |
| 20260505002049 | 81 | 305 | 0.0 | 0.0 | 0.00 | 0.00 | 0.00 | 45 | 1010.1 |
| 20260505001546 | 81 | 298 | 0.0 | 0.0 | 0.00 | 0.00 | 0.00 | 48 | 1009.9 |
| 20260505001043 | 80 | 294 | 0.0 | 0.0 | 0.00 | 0.00 | 0.00 | 46 | 1009.9 |
| 20260505000540 | 80 | 311 | 0.0 | 0.0 | 0.00 | 0.00 | 0.00 | 45 | 1010.1 |
| 20260505000038 | 80 | 323 | 1.0 | 2.0 | 0.00 | 0.00 | 0.00 | 44 | 1009.9 |
| 20260504235534 | 81 | 312 | 0.0 | 0.0 | 0.00 | 0.00 | 0.00 | 45 | 1009.9 |
| 20260504235031 | 80 | 249 | 0.0 | 0.0 | 0.00 | 0.00 | 0.00 | 45 | 1010.0 |
| 20260504234528 | 81 | 282 | 2.0 | 3.0 | 0.00 | 0.00 | 0.00 | 43 | 1010.2 |
| 20260504234025 | 80 | 302 | 0.0 | 0.0 | 0.00 | 0.00 | 0.00 | 51 | 1009.9 |
| 20260504233520 | 80 | 88 | 0.0 | 0.0 | 0.00 | 0.00 | 0.00 | 53 | 1010.0 |
| 20260504233018 | 80 | 342 | 0.0 | 0.0 | 0.00 | 0.00 | 0.00 | 46 | 1010.0 |
| 20260504232515 | 80 | 320 | 0.0 | 0.0 | 0.00 | 0.00 | 0.00 | 45 | 1010.1 |
| 20260504232012 | 80 | 357 | 0.0 | 0.0 | 0.00 | 0.00 | 0.00 | 47 | 1010.3 |
| 20260504231509 | 80 | 345 | 1.0 | 2.0 | 0.00 | 0.00 | 0.00 | 48 | 1010.0 |
| 20260504231005 | 81 | 350 | 3.0 | 6.0 | 0.00 | 0.00 | 0.00 | 44 | 1010.1 |
| 20260504230501 | 81 | 323 | 0.0 | 0.0 | 0.00 | 0.00 | 0.00 | 49 | 1010.1 |
| 20260504230000 | 82 | 327 | 0.0 | 0.0 | 0.00 | 0.00 | 0.00 | 45 | 1010.2 |
| 20260504225456 | 82 | 304 | 0.0 | 0.0 | 0.00 | 0.00 | 0.00 | 47 | 1010.3 |
| 20260504224954 | 81 | 318 | 0.0 | 0.0 | 0.00 | 0.00 | 0.00 | 46 | 1010.4 |
| 20260504224450 | 81 | 326 | 0.0 | 0.0 | 0.00 | 0.00 | 0.00 | 48 | 1010.5 |
| 20260504223947 | 82 | 305 | 0.0 | 0.0 | 0.00 | 0.00 | 0.00 | 49 | 1010.4 |
| 20260504223444 | 81 | 308 | 0.0 | 0.0 | 0.00 | 0.00 | 0.00 | 49 | 1010.5 |
| 20260504222939 | 81 | 225 | 0.0 | 0.0 | 0.00 | 0.00 | 0.00 | 48 | 1010.6 |
| 20260504222437 | 82 | 326 | 0.0 | 0.0 | 0.00 | 0.00 | 0.00 | 52 | 1010.4 |
| 20260504221935 | 82 | 263 | 0.0 | 0.0 | 0.00 | 0.00 | 0.00 | 48 | 1010.6 |
| 20260504221431 | 81 | 212 | 0.0 | 0.0 | 0.00 | 0.00 | 0.00 | 51 | 1010.7 |
| 20260504220928 | 81 | 341 | 0.0 | 0.0 | 0.00 | 0.00 | 0.00 | 49 | 1010.6 |
| 20260504220425 | 81 | 306 | 0.0 | 0.0 | 0.00 | 0.00 | 0.00 | 49 | 1010.8 |
| 20260504215922 | 81 | 310 | 0.0 | 0.0 | 0.00 | 0.00 | 0.00 | 48 | 1010.6 |
| 20260504215419 | 81 | 159 | 0.0 | 0.0 | 0.00 | 0.00 | 0.00 | 55 | 1010.7 |
| 20260504214915 | 80 | 299 | 0.0 | 0.0 | 0.00 | 0.00 | 0.00 | 49 | 1010.7 |
| 20260504214412 | 80 | 356 | 5.0 | 9.0 | 0.00 | 0.00 | 0.00 | 49 | 1010.7 |
| 20260504213909 | 81 | 324 | 0.0 | 0.0 | 0.00 | 0.00 | 0.00 | 50 | 1010.7 |
| 20260504213404 | 81 | 335 | 0.0 | 0.0 | 0.00 | 0.00 | 0.00 | 53 | 1010.7 |